KG5MMT-15 Weather Reports


time (UTC)temp
C
wind
direction
speed
KPH
gust
KPH
rain 1hr
cm
rain 24hr
cm
rain mn
cm
humidity
%
barometer
mb
20260510204343 15 149 6.4 24.1 0.00 0.00 0.00 51
20260510204205 15 116 8.0 16.1 0.00 0.00 0.00 52
20260510203704 15 149 6.4 24.1 0.00 0.00 0.00 51
20260510203205 15 81 3.2 12.9 0.00 0.00 0.00 50
20260510202705 15 97 9.7 12.9 0.00 0.00 0.00 51
20260510202205 15 87 4.8 16.1 0.00 0.00 0.00 51
20260510201705 15 167 4.8 16.1 0.00 0.00 0.00 51
20260510201205 15 63 11.3 20.9 0.00 0.00 0.00 50
20260510200705 15 16 4.8 11.3 0.00 0.00 0.00 51
20260510200205 15 99 4.8 14.5 0.00 0.00 0.00 51
20260510195705 15 84 12.9 17.7 0.00 0.00 0.00 51
20260510195205 15 22 9.7 20.9 0.00 0.00 0.00 51
20260510194705 15 30 14.5 17.7 0.00 0.00 0.00 49
20260510194205 15 149 12.9 17.7 0.00 0.00 0.00 50
20260510193705 15 82 9.7 17.7 0.00 0.00 0.00 51
20260510193205 15 355 12.9 17.7 0.00 0.00 0.00 51
20260510192705 15 101 1.6 11.3 0.00 0.00 0.00 50
20260510192205 15 90 4.8 17.7 0.00 0.00 0.00 51
20260510191705 15 68 8.0 14.5 0.00 0.00 0.00 50
20260510191205 15 47 11.3 16.1 0.00 0.00 0.00 50
20260510190705 15 219 1.6 19.3 0.00 0.00 0.00 50
20260510190205 16 139 11.3 17.7 0.00 0.00 0.00 49
20260510185705 16 338 9.7 22.5 0.00 0.00 0.00 48
20260510185205 15 8 17.7 19.3 0.00 0.00 0.00 48
20260510184705 16 64 3.2 16.1 0.00 0.00 0.00 50
20260510184205 15 101 8.0 20.9 0.00 0.00 0.00 50
20260510183705 14 70 12.9 19.3 0.00 0.00 0.00 53
20260510183205 14 125 4.8 14.5 0.00 0.00 0.00 56
20260510182705 14 116 6.4 11.3 0.00 0.00 0.00 55
20260510182205 14 92 9.7 12.9 0.00 0.00 0.00 56
20260510181705 14 68 3.2 17.7 0.00 0.00 0.00 54
20260510181205 14 127 14.5 19.3 0.00 0.00 0.00 52
20260510180705 15 98 6.4 16.1 0.00 0.00 0.00 50
20260510180205 15 94 4.8 19.3 0.00 0.00 0.00 49
20260510175705 15 132 16.1 17.7 0.00 0.00 0.00 49
20260510175205 16 111 6.4 20.9 0.00 0.00 0.00 47
20260510174705 16 168 8.0 22.5 0.00 0.00 0.00 47
20260510174205 16 136 6.4 17.7 0.00 0.00 0.00 49
20260510173705 15 118 11.3 22.5 0.00 0.00 0.00 50
20260510173205 15 132 16.1 25.7 0.00 0.00 0.00 52
20260510172705 15 52 6.4 30.6 0.00 0.00 0.00 50
20260510172205 15 104 11.3 22.5 0.00 0.00 0.00 50
20260510171705 15 84 8.0 17.7 0.00 0.00 0.00 50
20260510171205 16 135 12.9 20.9 0.00 0.00 0.00 48
20260510170705 15 154 11.3 20.9 0.00 0.00 0.00 50
20260510170205 15 126 12.9 20.9 0.00 0.00 0.00 50
20260510165705 15 146 3.2 14.5 0.00 0.00 0.00 50
20260510165205 15 154 0.0 12.9 0.00 0.00 0.00 49
20260510164705 15 343 9.7 16.1 0.00 0.00 0.00 48
20260510164205 15 101 8.0 14.5 0.00 0.00 0.00 49
20260510163705 15 52 9.7 19.3 0.00 0.00 0.00 50
20260510163205 15 337 0.0 12.9 0.00 0.00 0.00 49
20260510162705 15 60 4.8 12.9 0.00 0.00 0.00 49
20260510162205 15 81 3.2 14.5 0.00 0.00 0.00 50
20260510161705 15 1 6.4 11.3 0.00 0.00 0.00 52
20260510161205 15 341 4.8 8.0 0.00 0.00 0.00 50
20260510160705 14 77 0.0 9.7 0.00 0.00 0.00 51
20260510160205 13 137 4.8 14.5 0.00 0.00 0.00 53
20260510155705 13 109 6.4 12.9 0.00 0.00 0.00 57
20260510155205 12 338 6.4 11.3 0.00 0.00 0.00 57
20260510154705 12 4 0.0 16.1 0.00 0.00 0.00 58
20260510154205 13 4 6.4 12.9 0.00 0.00 0.00 55
20260510153705 13 46 1.6 11.3 0.00 0.00 0.00 54
20260510153205 13 7 6.4 16.1 0.00 0.00 0.00 57
20260510152705 12 33 4.8 14.5 0.00 0.00 0.00 58
20260510152205 12 358 8.0 14.5 0.00 0.00 0.00 60
20260510151705 11 337 8.0 14.5 0.00 0.00 0.00 61
20260510151205 11 9 6.4 12.9 0.00 0.00 0.00 63
20260510150705 11 310 9.7 17.7 0.00 0.00 0.00 64
20260510150205 11 35 3.2 19.3 0.00 0.00 0.00 64
20260510145705 11 348 12.9 16.1 0.00 0.00 0.00 64
20260510145205 11 80 12.9 17.7 0.00 0.00 0.00 65
20260510144705 10 323 6.4 16.1 0.00 0.00 0.00 67
20260510144205 11 26 9.7 17.7 0.00 0.00 0.00 67
20260510143705 10 336 14.5 22.5 0.00 0.00 0.00 66
20260510143205 10 312 14.5 17.7 0.00 0.00 0.00 66
20260510142705 11 303 11.3 16.1 0.00 0.00 0.00 64
20260510142205 11 59 3.2 19.3 0.00 0.00 0.00 63
20260510141705 11 97 8.0 14.5 0.00 0.00 0.00 61
20260510141205 12 68 3.2 6.4 0.00 0.00 0.00 59
20260510140705 12 151 0.0 3.2 0.00 0.00 0.00 59
20260510140205 12 167 0.0 3.2 0.00 0.00 0.00 58
20260510135705 12 199 0.0 1.6 0.00 0.00 0.00 58
20260510135205 12 260 0.0 4.8 0.00 0.00 0.00 58
20260510134706 11 161 4.8 9.7 0.00 0.00 0.00 59
20260510134205 11 160 1.6 4.8 0.00 0.00 0.00 59
20260510133705 11 161 4.8 6.4 0.00 0.00 0.00 60
20260510133205 11 0 0.0 8.0 0.00 0.00 0.00 60
20260510132705 11 18 0.0 8.0 0.00 0.00 0.00 61
20260510132205 11 59 1.6 8.0 0.00 0.00 0.00 61
20260510131705 10 8 0.0 0.0 0.00 0.00 0.00 61
20260510131205 10 8 0.0 0.0 0.00 0.00 0.00 62
20260510130705 10 8 0.0 0.0 0.00 0.00 0.00 63
20260510130205 10 8 0.0 0.0 0.00 0.00 0.00 64
20260510125705 10 8 0.0 0.0 0.00 0.00 0.00 64
20260510125205 10 8 0.0 0.0 0.00 0.00 0.00 63
20260510124705 10 8 0.0 0.0 0.00 0.00 0.00 62
20260510124205 10 8 0.0 0.0 0.00 0.00 0.00 62
20260510123705 10 8 0.0 0.0 0.00 0.00 0.00 63
20260510123205 10 8 0.0 6.4 0.00 0.00 0.00 62
20260510122705 10 357 0.0 1.6 0.00 0.00 0.00 63
20260510122205 10 293 0.0 0.0 0.00 0.00 0.00 64
20260510121705 10 293 0.0 3.2 0.00 0.00 0.00 63
20260510121205 10 299 1.6 3.2 0.00 0.00 0.00 63
20260510120705 10 32 0.0 0.0 0.00 0.00 0.00 62
20260510120205 10 32 0.0 0.0 0.00 0.00 0.00 60
20260510115705 11 32 0.0 0.0 0.00 0.00 0.00 60
20260510115205 11 32 0.0 0.0 0.00 0.00 0.00 59
20260510114705 11 32 0.0 0.0 0.00 0.00 0.00 59
20260510114205 11 32 0.0 0.0 0.00 0.00 0.00 59
20260510113705 11 32 0.0 0.0 0.00 0.00 0.00 58
20260510113205 11 32 0.0 0.0 0.00 0.00 0.00 57
20260510112705 11 32 0.0 0.0 0.00 0.00 0.00 57
20260510112205 11 32 0.0 3.2 0.00 0.00 0.00 57
20260510111705 11 14 3.2 3.2 0.00 0.00 0.00 57
20260510111205 11 25 0.0 6.4 0.00 0.00 0.00 57
20260510110705 11 316 1.6 14.5 0.00 0.00 0.00 57
20260510110205 11 313 9.7 9.7 0.00 0.00 0.00 57
20260510105705 12 11 4.8 12.9 0.00 0.00 0.00 56
20260510105205 11 16 11.3 16.1 0.00 0.00 0.00 55
20260510104705 12 26 8.0 16.1 0.00 0.00 0.00 53
20260510104205 12 358 8.0 12.9 0.00 0.00 0.00 51
20260510103705 12 82 3.2 11.3 0.00 0.00 0.00 50
20260510103206 12 142 0.0 16.1 0.00 0.00 0.00 49
20260510102705 12 84 16.1 16.1 0.00 0.00 0.00 48
20260510102206 13 97 8.0 8.0 0.00 0.00 0.00 46
20260510101706 13 37 0.0 8.0 0.00 0.00 0.00 44
20260510101206 13 167 0.0 8.0 0.00 0.00 0.00 43
20260510100706 13 206 3.2 14.5 0.00 0.00 0.00 43
20260510100206 13 99 3.2 11.3 0.00 0.00 0.00 42
20260510095706 13 12 9.7 12.9 0.00 0.00 0.00 42
20260510095206 13 74 1.6 11.3 0.00 0.00 0.00 43
20260510094706 12 203 3.2 4.8 0.00 0.00 0.00 44
20260510094206 12 206 1.6 1.6 0.00 0.00 0.00 43
20260510093706 12 113 0.0 3.2 0.00 0.00 0.00 43
20260510093206 12 56 0.0 4.8 0.00 0.00 0.00 44
20260510092706 12 285 0.0 8.0 0.00 0.00 0.00 44
20260510092206 11 298 6.4 11.3 0.00 0.00 0.00 49
20260510091706 11 322 3.2 6.4 0.00 0.00 0.00 48
20260510091206 11 195 1.6 3.2 0.00 0.00 0.00 46
20260510090706 11 324 0.0 3.2 0.00 0.00 0.00 46
20260510090206 11 354 1.6 4.8 0.00 0.00 0.00 45
20260510085706 10 268 1.6 4.8 0.00 0.00 0.00 46
20260510085206 10 319 3.2 4.8 0.00 0.00 0.00 47
20260510084706 10 289 0.0 3.2 0.00 0.00 0.00 46
20260510084206 10 289 0.0 0.0 0.00 0.00 0.00 45
20260510083706 10 289 0.0 4.8 0.00 0.00 0.00 45
20260510083206 10 336 3.2 4.8 0.00 0.00 0.00 46
20260510082706 10 292 0.0 0.0 0.00 0.00 0.00 47
20260510082206 10 292 0.0 0.0 0.00 0.00 0.00 45
20260510081706 10 292 0.0 0.0 0.00 0.00 0.00 47
20260510081206 10 292 0.0 0.0 0.00 0.00 0.00 49
20260510080706 10 292 0.0 6.4 0.00 0.00 0.00 44
20260510080206 10 296 3.2 6.4 0.00 0.00 0.00 43
20260510075706 10 291 3.2 3.2 0.00 0.00 0.00 43
20260510075206 10 310 1.6 1.6 0.00 0.00 0.00 45
20260510074706 10 223 0.0 1.6 0.00 0.00 0.00 44
20260510074206 11 267 0.0 3.2 0.00 0.00 0.00 44
20260510073706 10 296 1.6 6.4 0.00 0.00 0.00 43
20260510073206 11 323 4.8 6.4 0.00 0.00 0.00 43
20260510072706 11 293 3.2 6.4 0.00 0.00 0.00 42
20260510072206 11 317 3.2 4.8 0.00 0.00 0.00 43
20260510071706 11 215 0.0 1.6 0.00 0.00 0.00 43
20260510071206 10 241 1.6 6.4 0.00 0.00 0.00 43
20260510070706 10 317 4.8 9.7 0.00 0.00 0.00 43
20260510070206 10 292 3.2 4.8 0.00 0.00 0.00 44
20260510065706 10 315 3.2 4.8 0.00 0.00 0.00 45
20260510065206 10 310 3.2 3.2 0.00 0.00 0.00 44
20260510064706 10 23 0.0 0.0 0.00 0.00 0.00 42
20260510064206 10 23 0.0 0.0 0.00 0.00 0.00 42
20260510063706 10 23 0.0 0.0 0.00 0.00 0.00 44
20260510063206 10 23 0.0 3.2 0.00 0.00 0.00 41
20260510062706 11 248 0.0 4.8 0.00 0.00 0.00 40
20260510062206 10 336 4.8 6.4 0.00 0.00 0.00 41
20260510061706 11 326 0.0 1.6 0.00 0.00 0.00 39
20260510061206 11 262 0.0 1.6 0.00 0.00 0.00 40
20260510060706 11 295 0.0 4.8 0.00 0.00 0.00 40
20260510060206 10 312 3.2 9.7 0.00 0.00 0.00 40
20260510055706 10 333 6.4 6.4 0.00 0.00 0.00 42
20260510055206 10 306 1.6 1.6 0.00 0.00 0.00 39
20260510054706 11 316 1.6 3.2 0.00 0.00 0.00 38
20260510054206 11 8 0.0 3.2 0.00 0.00 0.00 38
20260510053706 11 277 1.6 4.8 0.00 0.00 0.00 36
20260510053206 11 291 0.0 4.8 0.00 0.00 0.00 37
20260510052706 11 340 3.2 4.8 0.00 0.00 0.00 35
20260510052206 12 293 0.0 0.0 0.00 0.00 0.00 36
20260510051706 12 293 0.0 3.2 0.00 0.00 0.00 33
20260510051206 12 293 0.0 1.6 0.00 0.00 0.00 34
20260510050706 12 310 1.6 1.6 0.00 0.00 0.00 34
20260510050206 13 312 0.0 1.6 0.00 0.00 0.00 32
20260510045706 13 299 0.0 4.8 0.00 0.00 0.00 30
20260510045206 13 250 0.0 8.0 0.00 0.00 0.00 31
20260510044706 13 322 4.8 6.4 0.00 0.00 0.00 32
20260510044206 13 258 0.0 0.0 0.00 0.00 0.00 32
20260510043706 14 258 0.0 4.8 0.00 0.00 0.00 28
20260510043206 14 285 0.0 0.0 0.00 0.00 0.00 28
20260510042706 14 285 0.0 6.4 0.00 0.00 0.00 29
20260510042206 14 344 4.8 6.4 0.00 0.00 0.00 30
20260510041706 15 227 0.0 6.4 0.00 0.00 0.00 29
20260510041206 14 327 6.4 6.4 0.00 0.00 0.00 32
20260510040706 14 350 4.8 14.5 0.00 0.00 0.00 28
20260510040206 13 331 3.2 6.4 0.00 0.00 0.00 30
20260510035706 13 205 0.0 0.0 0.00 0.00 0.00 31
20260510035206 13 205 0.0 0.0 0.00 0.00 0.00 30
20260510034706 13 205 0.0 0.0 0.00 0.00 0.00 30
20260510034206 13 205 0.0 1.6 0.00 0.00 0.00 31
20260510033706 13 139 0.0 3.2 0.00 0.00 0.00 33
20260510033206 14 307 0.0 0.0 0.00 0.00 0.00 31
20260510032706 14 307 0.0 3.2 0.00 0.00 0.00 28
20260510032206 14 302 3.2 3.2 0.00 0.00 0.00 27
20260510031706 14 355 0.0 4.8 0.00 0.00 0.00 27
20260510031206 14 319 3.2 3.2 0.00 0.00 0.00 26
20260510030706 14 329 1.6 3.2 0.00 0.00 0.00 26
20260510030206 14 317 1.6 4.8 0.00 0.00 0.00 25
20260510025706 14 315 3.2 8.0 0.00 0.00 0.00 25
20260510025206 14 309 3.2 4.8 0.00 0.00 0.00 24
20260510024706 14 313 1.6 4.8 0.00 0.00 0.00 24
20260510024206 15 312 3.2 4.8 0.00 0.00 0.00 23
20260510023706 15 322 3.2 4.8 0.00 0.00 0.00 22
20260510023206 15 274 0.0 4.8 0.00 0.00 0.00 21
20260510022706 15 316 4.8 8.0 0.00 0.00 0.00 21
20260510022206 16 322 3.2 3.2 0.00 0.00 0.00 18
20260510021706 16 274 1.6 4.8 0.00 0.00 0.00 18
20260510021206 16 299 3.2 6.4 0.00 0.00 0.00 18
20260510020706 17 319 1.6 4.8 0.00 0.00 0.00 17
20260510020206 18 327 1.6 4.8 0.00 0.00 0.00 16
20260510015706 18 322 4.8 4.8 0.00 0.00 0.00 16
20260510015206 19 275 0.0 0.0 0.00 0.00 0.00 14
20260510014706 20 275 0.0 0.0 0.00 0.00 0.00 14
20260510014206 21 275 0.0 0.0 0.00 0.00 0.00 13
20260510013706 21 275 0.0 12.9 0.00 0.00 0.00 12
20260510013206 21 323 4.8 9.7 0.00 0.00 0.00 12
20260510012706 21 293 0.0 8.0 0.00 0.00 0.00 11
20260510012206 21 42 0.0 12.9 0.00 0.00 0.00 12
20260510011706 21 289 0.0 14.5 0.00 0.00 0.00 12
20260510011206 21 206 0.0 8.0 0.00 0.00 0.00 11
20260510010706 21 262 3.2 12.9 0.00 0.00 0.00 11
20260510010206 21 326 12.9 16.1 0.00 0.00 0.00 11
20260510005706 22 284 1.6 8.0 0.00 0.00 0.00 12
20260510005206 22 0 4.8 4.8 0.00 0.00 0.00 13
20260510004706 22 286 1.6 6.4 0.00 0.00 0.00 12
20260510004206 22 255 0.0 3.2 0.00 0.00 0.00 12
20260510003706 22 201 0.0 4.8 0.00 0.00 0.00 12
20260510003206 22 316 0.0 1.6 0.00 0.00 0.00 12
20260510002706 23 201 0.0 1.6 0.00 0.00 0.00 12
20260510002206 22 26 0.0 4.8 0.00 0.00 0.00 11
20260510001706 22 296 1.6 9.7 0.00 0.00 0.00 12
20260510001206 22 133 1.6 9.7 0.00 0.00 0.00 12
20260510000706 22 358 8.0 16.1 0.00 0.00 0.00 12
20260510000206 22 305 9.7 9.7 0.00 0.00 0.00 11
20260509235706 22 333 1.6 12.9 0.00 0.00 0.00 12
20260509235207 22 7 11.3 22.5 0.00 0.00 0.00 12
20260509234707 22 313 16.1 24.1 0.00 0.00 0.00 12
20260509234207 22 32 3.2 16.1 0.00 0.00 0.00 11
20260509233707 22 4 11.3 20.9 0.00 0.00 0.00 11
20260509233207 22 343 11.3 29.0 0.00 0.00 0.00 11
20260509232707 22 271 9.7 27.4 0.00 0.00 0.00 11
20260509232207 23 310 6.4 12.9 0.00 0.00 0.00 11
20260509231707 23 341 8.0 8.0 0.00 0.00 0.00 11
20260509231207 24 261 0.0 8.0 0.00 0.00 0.00 11
20260509230707 24 306 1.6 14.5 0.00 0.00 0.00 11
20260509230207 23 30 4.8 25.7 0.00 0.00 0.00 12
20260509225707 23 329 12.9 17.7 0.00 0.00 0.00 12
20260509225207 22 326 12.9 22.5 0.00 0.00 0.00 12
20260509224707 23 255 3.2 22.5 0.00 0.00 0.00 12
20260509224207 23 313 16.1 29.0 0.00 0.00 0.00 10
20260509223707 24 268 1.6 19.3 0.00 0.00 0.00 10
20260509223207 24 30 0.0 16.1 0.00 0.00 0.00 10
20260509222707 24 267 0.0 22.5 0.00 0.00 0.00 11
20260509222207 24 310 9.7 22.5 0.00 0.00 0.00 11
20260509221707 23 331 19.3 25.7 0.00 0.00 0.00 11
20260509221207 23 334 14.5 19.3 0.00 0.00 0.00 10
20260509220707 25 28 0.0 6.4 0.00 0.00 0.00 10
20260509220207 25 222 0.0 19.3 0.00 0.00 0.00 9
20260509215707 25 132 3.2 22.5 0.00 0.00 0.00 9
20260509215207 26 316 11.3 25.7 0.00 0.00 0.00 9
20260509214707 25 11 8.0 29.0 0.00 0.00 0.00 9
20260509214207 25 284 14.5 25.7 0.00 0.00 0.00 10
20260509213707 25 336 14.5 16.1 0.00 0.00 0.00 10
20260509213207 25 302 12.9 17.7 0.00 0.00 0.00 10
20260509212707 25 298 14.5 25.7 0.00 0.00 0.00 9
20260509212207 26 5 6.4 22.5 0.00 0.00 0.00 9
20260509211707 26 15 8.0 27.4 0.00 0.00 0.00 9
20260509211207 25 14 8.0 19.3 0.00 0.00 0.00 9
20260509210707 25 160 6.4 32.2 0.00 0.00 0.00 9
20260509210207 25 22 0.0 16.1 0.00 0.00 0.00 9
20260509205707 25 317 3.2 16.1 0.00 0.00 0.00 9
20260509205207 25 264 3.2 20.9 0.00 0.00 0.00 10
20260509204707 24 337 4.8 24.1 0.00 0.00 0.00 11